When you browse on this site, cookies collect data to enhance your experience and personalize the content and advertising you see.
Visit our Privacy Policy to learn more. By continuing to use the site, you agree to this use of cookies and data.
  • In France
  • List of Countries
  • For 7 days
  • Water Temperature
  • Satellite Maps
  • Weather Map
  • Weather Widgets
  • user-avatar
    Login

    Hourly Weather Aykanovka

    Today, 19 February, Tuesday

    Time Temperature Precipitation Wind Pressure Humidity
    00:00 -13°C° 0 mm 5 mps 750 mmHg 88%
    01:00 -14°C° 0 mm 4 mps 751 mmHg 89%
    02:00 -14°C° 0 mm 4 mps 751 mmHg 91%
    03:00 -14°C° 0 mm 3 mps 751 mmHg 91%
    04:00 -15°C° 0 mm 3 mps 751 mmHg 92%
    05:00 -15°C° 0 mm 3 mps 752 mmHg 93%
    06:00 -15°C° 0 mm 2 mps 752 mmHg 93%
    07:00 -15°C° 0 mm 2 mps 752 mmHg 93%
    08:00 -15°C° 0 mm 2 mps 753 mmHg 92%
    09:00 -14°C° 0 mm 2 mps 753 mmHg 92%
    10:00 -14°C° 0 mm 3 mps 752 mmHg 91%
    11:00 -13°C° 0 mm 3 mps 752 mmHg 90%
    12:00 -12°C° 0 mm 4 mps 752 mmHg 89%
    13:00 -11°C° 0 mm 4 mps 751 mmHg 87%
    14:00 -11°C° 0 mm 5 mps 751 mmHg 86%
    15:00 -10°C° 0 mm 5 mps 750 mmHg 85%
    16:00 -10°C° 0 mm 6 mps 750 mmHg 86%
    17:00 -11°C° 0 mm 6 mps 750 mmHg 86%
    18:00 -11°C° 0 mm 6 mps 749 mmHg 87%
    19:00 -10°C° 0 mm 6 mps 749 mmHg 87%
    20:00 -10°C° 0 mm 6 mps 749 mmHg 87%
    21:00 -10°C° 0 mm 6 mps 748 mmHg 87%
    22:00 -10°C° 0 mm 6 mps 748 mmHg 87%
    23:00 -10°C° 0 mm 6 mps 747 mmHg 86%

    Tomorrow, 20 February, Wednesday

    Time Temperature Precipitation Wind Pressure Humidity
    00:00 -10°C° 0 mm 5 mps 747 mmHg 86%
    01:00 -10°C° 0 mm 6 mps 747 mmHg 85%
    02:00 -10°C° 0 mm 6 mps 746 mmHg 85%
    03:00 -10°C° 0 mm 6 mps 746 mmHg 84%
    04:00 -10°C° 0 mm 6 mps 745 mmHg 85%
    05:00 -10°C° 0 mm 6 mps 745 mmHg 85%
    06:00 -10°C° 0 mm 6 mps 744 mmHg 86%
    07:00 -11°C° 0 mm 7 mps 744 mmHg 86%
    08:00 -9°C° 0 mm 7 mps 743 mmHg 87%
    09:00 -9°C° 0 mm 7 mps 743 mmHg 87%
    10:00 -8°C° 0 mm 7 mps 742 mmHg 88%
    11:00 -7°C° 0 mm 7 mps 742 mmHg 89%
    12:00 -6°C° 0 mm 7 mps 742 mmHg 89%
    13:00 -6°C° 0.1 mm 7 mps 742 mmHg 90%
    14:00 -4°C° 0.1 mm 7 mps 741 mmHg 90%
    15:00 -4°C° 0.1 mm 6 mps 741 mmHg 90%
    16:00 -4°C° 0.1 mm 6 mps 741 mmHg 90%
    17:00 -4°C° 0.1 mm 6 mps 741 mmHg 90%
    18:00 -4°C° 0.1 mm 6 mps 740 mmHg 90%
    19:00 -3°C° 0.3 mm 6 mps 740 mmHg 91%
    20:00 -3°C° 0.3 mm 6 mps 740 mmHg 91%
    21:00 -2°C° 0.3 mm 6 mps 740 mmHg 92%
    22:00 -2°C° 0 mm 6 mps 739 mmHg 92%
    23:00 -2°C° 0 mm 6 mps 739 mmHg 92%

    Day after tomorrow, 21 February, Thursday

    Time Temperature Precipitation Wind Pressure Humidity
    00:00 -2°C° 0 mm 6 mps 739 mmHg 92%
    01:00 -2°C° 0 mm 5 mps 739 mmHg 92%
    02:00 -2°C° 0 mm 5 mps 738 mmHg 93%
    03:00 -2°C° 0 mm 5 mps 738 mmHg 93%
    04:00 -2°C° 0 mm 5 mps 738 mmHg 93%
    05:00 -2°C° 0 mm 5 mps 737 mmHg 93%
    06:00 -3°C° 0 mm 6 mps 737 mmHg 93%
    07:00 -3°C° 0.2 mm 6 mps 737 mmHg 93%
    08:00 -3°C° 0.2 mm 6 mps 736 mmHg 93%
    09:00 -3°C° 0.2 mm 6 mps 736 mmHg 93%
    10:00 -3°C° 0.3 mm 6 mps 736 mmHg 94%
    11:00 -2°C° 0.3 mm 5 mps 736 mmHg 96%
    12:00 -1°C° 0.3 mm 5 mps 736 mmHg 97%
    13:00 -2°C° 0.1 mm 5 mps 736 mmHg 96%
    14:00 -2°C° 0.1 mm 4 mps 735 mmHg 95%
    15:00 -2°C° 0.1 mm 4 mps 735 mmHg 93%
    16:00 -3°C° 0 mm 4 mps 735 mmHg 93%
    17:00 -4°C° 0 mm 3 mps 735 mmHg 93%
    18:00 -5°C° 0 mm 3 mps 735 mmHg 93%
    19:00 -6°C° 0.1 mm 3 mps 735 mmHg 94%
    20:00 -6°C° 0.1 mm 3 mps 736 mmHg 95%
    21:00 -7°C° 0.1 mm 3 mps 736 mmHg 96%
    22:00 -7°C° 0.1 mm 4 mps 736 mmHg 95%
    23:00 -7°C° 0.1 mm 4 mps 736 mmHg 94%

    22 February, Friday

    Time Temperature Precipitation Wind Pressure Humidity
    00:00 -6°C° 0.1 mm 5 mps 736 mmHg 93%
    01:00 -8°C° 0.1 mm 6 mps 736 mmHg 92%
    02:00 -8°C° 0.1 mm 7 mps 737 mmHg 91%
    03:00 -8°C° 0.1 mm 8 mps 737 mmHg 90%
    04:00 -11°C° 0.2 mm 8 mps 738 mmHg 90%
    05:00 -12°C° 0.2 mm 8 mps 738 mmHg 89%
    06:00 -13°C° 0.2 mm 8 mps 739 mmHg 89%
    07:00 -13°C° 0.1 mm 8 mps 739 mmHg 88%
    08:00 -13°C° 0.1 mm 8 mps 740 mmHg 87%
    09:00 -14°C° 0.1 mm 7 mps 741 mmHg 87%
    10:00 -14°C° 0.1 mm 7 mps 741 mmHg 86%
    11:00 -14°C° 0.1 mm 7 mps 742 mmHg 86%
    12:00 -14°C° 0.1 mm 7 mps 742 mmHg 85%
    13:00 -14°C° 0.1 mm 7 mps 743 mmHg 85%
    14:00 -15°C° 0.1 mm 7 mps 743 mmHg 85%
    15:00 -15°C° 0.1 mm 6 mps 744 mmHg 84%
    16:00 -15°C° 0.1 mm 6 mps 744 mmHg 86%
    17:00 -15°C° 0.1 mm 5 mps 745 mmHg 87%
    18:00 -15°C° 0.1 mm 5 mps 746 mmHg 89%
    19:00 -15°C° 0.1 mm 5 mps 746 mmHg 89%
    20:00 -17°C° 0.1 mm 5 mps 746 mmHg 90%
    21:00 -16°C° 0.1 mm 4 mps 747 mmHg 90%
    22:00 -16°C° 0 mm 4 mps 747 mmHg 91%
    23:00 -17°C° 0 mm 4 mps 748 mmHg 91%

    23 February, Saturday

    Time Temperature Precipitation Wind Pressure Humidity
    00:00 -17°C° 0 mm 4 mps 748 mmHg 92%
    01:00 -17°C° 0 mm 4 mps 749 mmHg 92%
    02:00 -17°C° 0 mm 4 mps 749 mmHg 92%
    03:00 -17°C° 0 mm 4 mps 750 mmHg 93%
    04:00 -17°C° 0.1 mm 4 mps 750 mmHg 93%
    05:00 -16°C° 0.1 mm 4 mps 750 mmHg 93%
    06:00 -16°C° 0.1 mm 4 mps 751 mmHg 93%
    07:00 -16°C° 0.1 mm 4 mps 751 mmHg 92%
    08:00 -15°C° 0.1 mm 4 mps 752 mmHg 92%
    09:00 -15°C° 0.1 mm 4 mps 753 mmHg 91%
    10:00 -15°C° 0.1 mm 4 mps 753 mmHg 90%
    11:00 -14°C° 0.1 mm 4 mps 753 mmHg 89%
    12:00 -14°C° 0.1 mm 4 mps 754 mmHg 88%
    13:00 -14°C° 0 mm 4 mps 754 mmHg 88%
    14:00 -14°C° 0 mm 4 mps 754 mmHg 87%
    15:00 -13°C° 0 mm 3 mps 754 mmHg 87%
    16:00 -14°C° 0 mm 3 mps 755 mmHg 89%
    17:00 -15°C° 0 mm 3 mps 755 mmHg 90%
    18:00 -15°C° 0 mm 2 mps 756 mmHg 92%
    19:00 -15°C° 0 mm 2 mps 756 mmHg 93%
    20:00 -16°C° 0 mm 2 mps 756 mmHg 94%
    21:00 -16°C° 0 mm 2 mps 757 mmHg 94%
    22:00 -16°C° 0 mm 2 mps 757 mmHg 95%
    23:00 -16°C° 0 mm 2 mps 757 mmHg 95%

    24 February, Sunday

    Time Temperature Precipitation Wind Pressure Humidity
    00:00 -17°C° 0 mm 2 mps 758 mmHg 96%
    01:00 -16°C° 0 mm 2 mps 758 mmHg 96%
    02:00 -16°C° 0 mm 2 mps 758 mmHg 96%
    03:00 -16°C° 0 mm 2 mps 758 mmHg 96%
    04:00 -16°C° 0 mm 2 mps 758 mmHg 96%
    05:00 -15°C° 0 mm 2 mps 759 mmHg 97%
    06:00 -15°C° 0 mm 2 mps 759 mmHg 97%
    07:00 -15°C° 0 mm 2 mps 759 mmHg 96%
    08:00 -15°C° 0 mm 2 mps 760 mmHg 96%
    09:00 -16°C° 0 mm 3 mps 760 mmHg 96%
    10:00 -14°C° 0 mm 2 mps 760 mmHg 94%
    11:00 -14°C° 0 mm 2 mps 760 mmHg 93%
    12:00 -14°C° 0 mm 2 mps 760 mmHg 91%
    13:00 -13°C° 0 mm 2 mps 760 mmHg 90%
    14:00 -13°C° 0 mm 2 mps 760 mmHg 89%
    15:00 -12°C° 0 mm 2 mps 760 mmHg 87%
    16:00 -13°C° 0 mm 2 mps 760 mmHg 87%
    17:00 -15°C° 0 mm 2 mps 760 mmHg 87%
    18:00 -14°C° 0 mm 1 mps 760 mmHg 88%
    19:00 -14°C° 0 mm 1 mps 760 mmHg 87%
    20:00 -14°C° 0 mm 1 mps 760 mmHg 87%
    21:00 -15°C° 0 mm 1 mps 761 mmHg 87%
    22:00 -15°C° 0 mm 1 mps 760 mmHg 87%
    23:00 -17°C° 0 mm 2 mps 760 mmHg 86%
    Show more